Location: Seattle
(47.6064°N, 122.3308°W)
Time: 02:47:12
(UTC-08:00)

A-11 Canister half - Pass Details

Date: 29 November 2020
Orbit: 1524 x 1684 km, 47.3° (Epoch: 21 January)

Event Time Altitude Azimuth Distance (km) Brightness Sun altitude
Rises 08:45:54 0° 269° (W) 4,929 11.2 8.5°
Reaches altitude 10° 08:49:05 10° 269° (W) 3,931 10.8 8.8°
Maximum altitude 08:59:13 89° 180° (S) 1,646 9.4 10.0°
Drops below altitude 10° 09:09:02 10° 94° (E) 3,815 11.8 11.1°
Sets 09:12:04 0° 94° (E) 4,779 12.3 11.4°
